Location: Lafig�re
(44.4503°N, 4.0357°E)
Time: 14:30:27
(UTC+00:00)

Vanguard 2 Rocket - Pass Details

Date: 22 June 2021
Orbit: 555 x 3325 km, 32.9° (Epoch: 28 July)

Event Time Altitude Azimuth Distance (km) Brightness Sun altitude
Rises 00:36:36 0° 276° (W) 6,446 11.2 -21.1°
Reaches altitude 10° 00:43:02 10° 262° (W) 4,888 10.4 -20.9°
Enters shadow 00:49:45 18° 232° (SW) 3,572 9.4 -20.6°
